Regional Weather Roundup
Issued by NWS Jackson, KY

Home | Current Version | Previous Version | Graphics & Text | Print | Product List | Glossary On
Versions: 1 2 3 4 5 6 7 8 9 10 11 12 13 14 15 16 17 18 19 20 21 22 23 24 25 26 27 28 29 30 31 32 33 34 35 36 37 38 39 40 41 42 43 44 45 46 47 48 49 50
000
ASUS43 KJKL 282111
RWRJKL

EAST KENTUCKY HOURLY WEATHER ROUNDUP
NATIONAL WEATHER SERVICE JACKSON KY
400 PM EST FRI NOV 28 2014

NOTE: "FAIR" INDICATES FEW OR NO CLOUDS BELOW 12,000 FEET WITH
NO SIGNIFICANT WEATHER AND/OR OBSTRUCTIONS TO VISIBILITY.

* THESE REPORTS ARE NOT UNDER NWS QUALITY CONTROL AND MAY NOT
  REPORT WEATHER SUCH AS PRECIPITATION AND FOG.

KYZ079-080-083-085-087-088-110-112-115-119-120-282200
...EASTERN KENTUCKY...

CITY           SKY/WX    TMP DP  RH WIND       PRES   REMARKS
JACKSON        CLOUDY    35  17  47 CALM      30.26S
LONDON         MOSUNNY   38  17  42 S6        30.26F WCI  33
SOMERSET*      SUNNY     39  18  41 S6        30.27F WCI  35
MONTICELLO*    SUNNY     44  19  37 S7        30.27F
HARLAN APT*    PTCLDY    37  14  38 E3        30.25S
HAZARD APT*    MOCLDY    36  18  48 CALM      30.26F
BLACK MTN*       N/A     23  19  86 SW9         N/A  WCI  13
PIKEVILLE APT* SUNNY     34  18  51 S3        30.25S
BIG SANDY*     PTCLDY    36  18  48 S7        30.26S WCI  30
MOREHEAD APT*  MOCLDY    36  16  44 S6        30.27S WCI  31
$$

KYZ035-036-041-042-044-050-067-078-099-282200
...CENTRAL KENTUCKY...

CITY           SKY/WX    TMP DP  RH WIND       PRES   REMARKS
MT STERLING*   PTSUNNY   36  18  48 SW7       30.26F WCI  30
FLEMING/MASON* MOSUNNY   34  19  55 S7        30.26F WCI  28
DANVILLE*      SUNNY     36  19  51 S9        30.24F WCI  29
RICHMOND*      MOSUNNY   37  16  41 S6        30.25F WCI  33
LEXINGTON      MOSUNNY   36  17  46 S14       30.23F WCI  27
FRANKFORT      MOSUNNY   37  18  46 S12       30.22F WCI  29
$$

KYZ091>093-OHZ055-061-077-WVZ005-015-034-035-042-282200
...SOUTHERN OHIO/WEST VIRGINIA...

CITY           SKY/WX    TMP DP  RH WIND       PRES   REMARKS
COVINGTON      PTSUNNY   34  15  46 S14       30.21F WCI  25
COLUMBUS       CLOUDY    31  16  54 S8        30.25S WCI  23
DAYTON         PTSUNNY   33  17  51 S12       30.20F WCI  24
WILMINGTON     PTSUNNY   32  18  56 S9        30.22S WCI  24
HUNTINGTON     MOSUNNY   35  18  49 SW8       30.27S WCI  29
CHARLESTON     PTSUNNY   32  20  61 SW6       30.28F WCI  26
PINEVILLE*     MOSUNNY   32  24  72 MISG      30.30S
BECKLEY        MOSUNNY   27  16  63 SW9       30.18F WCI  18
BLUEFIELD      SUNNY     28  15  58 W6        30.19F WCI  22
$$

VAZ002-007-008-TNZ017-027-036-066-071-282200
...SOUTHWEST VIRGINIA/EAST TENNESSEE...

CITY           SKY/WX    TMP DP  RH WIND       PRES   REMARKS
WISE*          CLOUDY    34  19  55 SW8       30.21S WCI  27
JONESVILLE*    PTCLDY    39  16  38 CALM      30.29S
ABINGDON*      CLOUDY    34  22  61 W5        30.24F WCI  30
BRISTOL        PTSUNNY   37  20  50 SW5       30.26F WCI  33
KNOXVILLE      MOSUNNY   42  19  39 CALM      30.28F
OAK RIDGE      SUNNY     43  17  35 VRB3      30.30F
CROSSVILLE     SUNNY     43  15  32 S5        30.23F
NASHVILLE      MOSUNNY   47  21  35 S9        30.24F
$$

...KEY TO REMARKS...
VSB - VISIBILITY IN MILES
WCI - WIND CHILL INDEX
HX  - HEAT INDEX

$$



USA.gov is the U.S. government's official web portal to all federal, state and local government web resources and services.